Location: Ferchesar
(52.6477°N, 12.4298°E)
Time: 17:31:11
(UTC+01:00)

Vanguard 3 - Pass Details

Date: 10 December 2021
Orbit: 508 x 3260 km, 33.3° (Epoch: 22 January)

Event Time Altitude Azimuth Distance (km) Brightness Sun altitude
Rises 22:52:06 0° 169° (SSE) 5,963 - -57.4°
Reaches altitude 10° 23:01:57 10° 136° (SE) 5,685 - -58.1°
Maximum altitude 23:04:40 11° 127° (SE) 5,786 - -58.3°
Drops below altitude 10° 23:07:30 10° 118° (ESE) 5,961 - -58.5°
Exits shadow 23:16:55 - 93° (E) 6,918 11.7 -59.0°
Sets 23:19:23 0° 88° (E) 7,232 11.9 -59.2°
